"TOA5","AWS1","CR1000","7964","CR1000.Std.14","CPU:AWS1_114.CR1","64363","TBL110"
"TIMESTAMP","RECORD","Wind_spd_WVc(1)","Wind_spd_WVc(2)","Air_Temp_Avg","Humidity_Avg","SW_upper_Wm2_Avg","Rain_Tot","Press_Avg","Issui_Tot","Depth_cm","SR50A_Raw","Quality","Ground_Temp_Avg(1)","Ground_Temp_Avg(2)","SW_lower_Wm2_Avg","Albedo_Avg","SWC_per(1)","SWC_per(2)","Period(1)","Period(2)"
"TS","RN","","","","","","","","","","","","","","","","","","",""
"","","WVc","WVc","Avg","Avg","Avg","Tot","Avg","Tot","Smp","Smp","Smp","Avg","Avg","Avg","Avg","Smp","Smp","Smp","Smp"
"2017-07-01 00:00:00",294829,0.367,95.2,16.86,100,0,0.5,865.8895,0,-0.196,3.088,219,17.67,16.8,0.1856357,0,49.95,56.7,33.28,34.91
"2017-07-01 00:10:00",294830,0.462,75.75,16.88,100,0,0,865.7989,0,-35.67,3.432,251,17.66,16.81,0.2121551,0,49.95,56.75,33.28,34.93
"2017-07-01 00:20:00",294831,0.488,74.47,16.89,100,0,1.5,865.7905,0,318,0,0,17.64,16.8,0.1325952,0,49.95,56.75,33.28,34.93
"2017-07-01 00:30:00",294832,0.217,56.28,16.9,100,0,1,865.7021,0,-1.248,3.098,199,17.63,16.8,0.2197284,0,50.06,56.75,33.31,34.93
"2017-07-01 00:40:00",294833,0.258,48.87,16.92,100,0,0,865.5505,0,-0.141,3.087,223,17.63,16.81,0.204579,0,50.17,56.81,33.34,34.94
"2017-07-01 00:50:00",294834,0.347,86.9,16.92,100,0,0.5,865.5483,0,5.061,3.037,471,17.61,16.81,0.1477525,0,50.39,56.87,33.39,34.95
"2017-07-01 01:00:00",294835,0.421,58.86,16.95,100,0,0,865.3567,0,-0.242,3.088,228,17.56,16.81,0.1704824,0,50.66,56.98,33.46,34.98
"2017-07-01 01:10:00",294836,0.605,65.93,16.97,100,0,0.5,865.2936,0,-0.862,3.094,218,17.55,16.81,0.1553275,0,50.77,57.1,33.49,35.01
"2017-07-01 01:20:00",294837,0.442,68.55,17.02,100,0,0.5,865.2936,0,-29.87,3.375,287,17.55,16.81,0.03030821,0,50.94,57.22,33.53,35.03
"2017-07-01 01:30:00",294838,0.384,47.35,17.03,100,0,1,865.1209,0,4.992,3.037,280,17.55,16.81,0.007576925,0,51.16,57.39,33.58,35.07
"2017-07-01 01:40:00",294839,0.624,53.34,17.03,100,0,0.5,865.0599,0,3.814,3.048,349,17.54,16.8,0.02273044,0,51.38,57.56,33.64,35.12
"2017-07-01 01:50:00",294840,0.547,72.85,17.04,100,0,1.5,865.041,0,4.244,3.044,330,17.55,16.8,0,0,51.55,57.8,33.68,35.17
"2017-07-01 02:00:00",294841,0.609,50.58,17.05,100,0,0,865.041,0,5.584,3.031,275,17.57,16.81,0,0,51.88,58.03,33.76,35.22
"2017-07-01 02:10:00",294842,0.41,57.16,17.11,100,0,0,865.041,0,-2.376,3.108,215,17.56,16.8,0,0,51.88,58.32,33.76,35.29
"2017-07-01 02:20:00",294843,0.471,48.63,17.06,100,0,0,865.0388,0,-2.144,3.106,210,17.55,16.81,0,0,51.88,58.67,33.76,35.37
"2017-07-01 02:30:00",294844,0.435,43.44,17.09,100,0,0,864.9988,0,-2.045,3.105,223,17.53,16.8,0.03788456,0,51.82,58.91,33.75,35.43
"2017-07-01 02:40:00",294845,0.316,33.48,17.1,100,0,0,864.7988,0,-3.646,3.12,181,17.55,16.82,0.01515445,0,51.77,58.97,33.73,35.44
"2017-07-01 02:50:00",294846,0.473,43.74,17.12,100,0,0.5,864.7882,0,16.09,2.929,354,17.55,16.81,0.01894326,0,51.71,58.97,33.72,35.44
"2017-07-01 03:00:00",294847,0.418,52.74,17.08,100,0,0.5,864.7882,0,-2.687,3.111,202,17.52,16.79,0.01894251,0,51.66,59.03,33.7,35.45
"2017-07-01 03:10:00",294848,0.559,49.72,17.12,100,0,0.5,864.7882,0,-1.575,3.1,247,17.47,16.81,0,0,51.71,59.03,33.72,35.45
"2017-07-01 03:20:00",294849,0.497,72.76,17.08,100,0,0,864.7988,0,-24.35,3.321,188,17.46,16.8,0,0,51.71,59.08,33.72,35.47
"2017-07-01 03:30:00",294850,0.543,93.7,17.08,100,0,0,864.7967,0,-3.068,3.115,195,17.46,16.79,0,0,51.66,59.08,33.7,35.47
"2017-07-01 03:40:00",294851,0.514,57.88,17.07,100,0,0,864.8514,0,-3.838,3.122,219,17.48,16.79,0,0,51.66,59.14,33.7,35.48
"2017-07-01 03:50:00",294852,0.459,67.86,17.06,100,0,2.5,864.8072,0,-3.585,3.12,199,17.5,16.8,0,0,51.66,59.14,33.7,35.48
"2017-07-01 04:00:00",294853,0.327,64.74,17.05,100,0,1,864.7903,0,-3.996,3.124,210,17.5,16.8,0.007576774,0,52.05,59.26,33.8,35.51
"2017-07-01 04:10:00",294854,0.521,52.06,17.07,100,0,0.5,864.7882,0,-4.147,3.125,202,17.49,16.8,0,0,52.32,59.5,33.87,35.56
"2017-07-01 04:20:00",294855,0.617,52.47,17.12,100,0,0,864.7841,0,-3.816,3.122,200,17.49,16.8,0,0,52.38,59.73,33.88,35.62
"2017-07-01 04:30:00",294856,0.468,46.93,17.08,100,0,0.5,864.942,0,-38.43,3.458,276,17.47,16.8,0.00757688,0,52.32,59.85,33.87,35.64
"2017-07-01 04:40:00",294857,0.463,74.97,17.12,100,0,0.5,865.0262,0,-28.59,3.362,207,17.48,16.8,0.003788467,0,52.27,59.91,33.85,35.66
"2017-07-01 04:50:00",294858,0.33,61.74,17.14,100,0.3418376,0,865.0262,0,0.545,3.079,360,17.46,16.8,0.01515378,0.032,52.27,59.97,33.85,35.67
"2017-07-01 05:00:00",294859,0.577,59.94,17.16,100,0.9351155,0,865.0198,0,-0.482,3.089,325,17.45,16.79,0.2235131,0.24,52.16,59.91,33.83,35.66
"2017-07-01 05:10:00",294860,0.417,34.31,17.16,100,1.386948,0,865.0115,0,1.271,3.072,420,17.45,16.79,0.31822,0.23,52.1,59.91,33.81,35.66
"2017-07-01 05:20:00",294861,0.285,21.92,17.18,100,2.125635,0,865.041,0,1.988,3.065,428,17.45,16.79,0.435664,0.209,52.05,59.91,33.8,35.66
"2017-07-01 05:30:00",294862,0.223,27.67,17.17,100,3.98027,1,865.0746,0,-23.53,3.313,198,17.46,16.8,0.4925034,0.125,51.99,59.79,33.79,35.63
"2017-07-01 05:40:00",294863,0.17,51.36,17.2,100,6.494798,1.5,865.0283,0,-24.53,3.322,204,17.45,16.79,0.8599661,0.131,52.05,59.85,33.8,35.64
"2017-07-01 05:50:00",294864,0.115,102.3,17.23,100,21.35826,0,864.9988,0,2.405,3.061,446,17.45,16.79,2.829892,0.135,52.21,59.91,33.84,35.66
"2017-07-01 06:00:00",294865,0.551,90.5,17.27,100,41.40763,0,865.0577,0,1.821,3.066,275,17.44,16.77,5.189964,0.126,52.21,59.97,33.84,35.67
"2017-07-01 06:10:00",294866,0.523,99.9,17.29,100,35.68676,0,865.0494,0,2.773,3.057,312,17.44,16.77,4.56486,0.128,52.21,59.97,33.84,35.67
"2017-07-01 06:20:00",294867,0.443,115.3,17.26,100,44.86861,0,865.0241,0,-3.469,3.118,222,17.43,16.77,5.599042,0.125,52.16,59.97,33.83,35.67
"2017-07-01 06:30:00",294868,0.49,110.7,17.23,100,51.8782,0,864.8114,0,-4.812,3.131,201,17.43,16.76,6.500689,0.125,52.1,59.97,33.81,35.67
"2017-07-01 06:40:00",294869,0.163,121.3,17.23,100,34.21773,0,864.8051,0,-4.504,3.128,200,17.42,16.76,4.087587,0.119,52.05,59.91,33.8,35.66
"2017-07-01 06:50:00",294870,0.19,151.2,17.13,100,20.91049,0,864.7861,0,0.928,3.076,438,17.42,16.79,2.345,0.112,51.94,59.91,33.77,35.66
"2017-07-01 07:00:00",294871,0.258,139.8,17.04,100,12.78118,1,864.7882,0,2.808,3.058,231,17.41,16.79,1.53428,0.12,51.88,59.91,33.76,35.66
"2017-07-01 07:10:00",294872,0.404,123.9,17.01,100,18.39173,0.5,864.7209,0,-2.859,3.113,253,17.4,16.79,2.041905,0.111,51.94,59.91,33.77,35.66
"2017-07-01 07:20:00",294873,0,0,16.97,100,11.47674,0.5,864.6135,0,-32.8,3.404,290,17.41,16.8,1.360017,0.12,52.05,59.91,33.8,35.66
"2017-07-01 07:30:00",294874,0.093,103.9,16.91,100,8.930762,2,864.6135,0,-0.42,3.09,228,17.41,16.8,1.098626,0.124,52.16,59.97,33.83,35.67
"2017-07-01 07:40:00",294875,0.184,2.039,16.78,100,7.73241,1.5,864.5356,0,-20.88,3.29,185,17.41,16.8,0.9925534,0.128,52.6,60.09,33.94,35.7
"2017-07-01 07:50:00",294876,0,0,16.73,100,15.36334,2,864.5293,0,-3.344,3.119,233,17.42,16.81,1.704841,0.114,52.94,60.62,34.02,35.82
"2017-07-01 08:00:00",294877,0,0,16.65,100,27.9454,2.5,864.5356,0,-4.337,3.13,206,17.43,16.82,2.818736,0.101,53.39,61.4,34.13,36
"2017-07-01 08:10:00",294878,0.042,29.74,16.6,100,22.20531,1.5,864.5925,0,18.77,2.906,305,17.44,16.83,2.341439,0.105,53.5,64.73,34.15,36.74
"2017-07-01 08:20:00",294879,0.074,34.76,16.55,100,23.13297,0.5,864.6893,0,318,0,0,17.44,16.83,2.53091,0.109,53.56,64.91,34.17,36.78
"2017-07-01 08:30:00",294880,0.462,145.6,16.56,100,39.83672,0,864.5672,0,-1.762,3.105,202,17.43,16.82,4.152452,0.104,53.5,64.91,34.15,36.78
"2017-07-01 08:40:00",294881,0.47,56.59,16.63,100,21.03757,0,864.5356,0,-0.412,3.091,216,17.42,16.82,2.383035,0.114,53.39,64.91,34.13,36.78
"2017-07-01 08:50:00",294882,0.454,92.7,16.89,100,36.38514,0,864.5377,0,-2.308,3.108,201,17.43,16.81,4.315187,0.119,53.33,64.91,34.11,36.78
"2017-07-01 09:00:00",294883,0.357,53.3,17.05,100,45.88249,0,864.5778,0,-23.93,3.317,208,17.43,16.8,5.307825,0.116,53.28,64.91,34.1,36.78
"2017-07-01 09:10:00",294884,0.221,39.7,17.2,100,30.55456,0,864.7841,0,-24.52,3.323,192,17.43,16.79,3.546161,0.116,53.16,64.85,34.07,36.77
"2017-07-01 09:20:00",294885,0.401,35.58,17.26,100,38.75449,1.5,864.7798,0,-0.046,3.084,210,17.39,16.77,4.080293,0.106,53.11,64.79,34.06,36.76
"2017-07-01 09:30:00",294886,0.552,51.26,17.34,100,33.41807,1,864.7903,0,-0.639,3.09,225,17.38,16.8,3.477863,0.104,53.11,64.24,34.06,36.63
"2017-07-01 09:40:00",294887,0.378,46.56,17.37,100,31.16989,0,864.7967,0,318,0,0,17.37,16.8,3.413386,0.109,53.16,64.12,34.07,36.61
"2017-07-01 09:50:00",294888,0.5,51.51,17.37,100,33.90816,0.5,864.8767,0,318,0,0,17.37,16.81,3.564889,0.103,53.16,64.12,34.07,36.61
"2017-07-01 10:00:00",294889,0.722,52.57,17.35,100,28.90572,0,865.0198,0,318,0,0,17.36,16.82,3.23143,0.112,53.05,63.99,34.04,36.58
"2017-07-01 10:10:00",294890,0.448,65.49,17.36,100,34.87745,0,865.0178,0,-20.38,3.281,192,17.36,16.83,3.625378,0.103,53.05,63.87,34.04,36.55
"2017-07-01 10:20:00",294891,0.424,52.96,17.38,100,25.87215,0,865.0241,0,18.71,2.902,309,17.36,16.82,2.424485,0.094,53,63.57,34.03,36.49
"2017-07-01 10:30:00",294892,0.586,56.79,17.36,100,19.22058,0.5,865.041,0,-21.67,3.294,237,17.36,16.83,1.803225,0.094,53,63.39,34.03,36.44
"2017-07-01 10:40:00",294893,0.673,76,17.32,100,19.75521,0.5,865.0367,0,0.834,3.076,241,17.36,16.82,1.879018,0.095,52.94,62.96,34.02,36.35
"2017-07-01 10:50:00",294894,0.763,88.7,17.3,100,47.93768,0,864.9209,0,2.852,3.056,318,17.36,16.82,4.939943,0.104,52.94,62.9,34.02,36.34
"2017-07-01 11:00:00",294895,0.483,74.8,17.31,100,49.74462,0,864.7882,0,0.425,3.08,222,17.36,16.82,5.148257,0.104,52.94,62.84,34.02,36.32
"2017-07-01 11:10:00",294896,0.665,110.1,17.34,100,80.85047,0.5,864.7651,0,2.231,3.062,269,17.36,16.82,8.497113,0.105,52.88,62.72,34,36.3
"2017-07-01 11:20:00",294897,0.672,81,17.36,100,74.59586,0,864.7861,0,0.971,3.074,222,17.36,16.82,8.069073,0.108,52.83,62.66,33.99,36.28
"2017-07-01 11:30:00",294898,0.395,77.24,17.53,100,117.7906,0.5,864.6746,0,318,0,0,17.36,16.82,13.46353,0.112,52.83,62.66,33.99,36.28
"2017-07-01 11:40:00",294899,0.532,46.84,17.55,100,112.4175,0.5,864.5525,0,2.58,3.057,256,17.36,16.83,12.56592,0.111,52.83,62.54,33.99,36.25
"2017-07-01 11:50:00",294900,0.561,91.7,17.59,100,79.63352,0.5,864.5419,0,-29.92,3.373,220,17.36,16.83,8.542682,0.106,52.83,62.48,33.99,36.24
"2017-07-01 12:00:00",294901,0.522,51.97,17.59,100,112.5065,0.5,864.523,0,318,0,0,17.35,16.81,12.2589,0.108,52.94,62.48,34.02,36.24
"2017-07-01 12:10:00",294902,0.61,53.68,17.58,100,95.9137,0,864.502,0,-0.979,3.092,288,17.35,16.83,10.84579,0.112,52.94,62.54,34.02,36.25
"2017-07-01 12:20:00",294903,0.374,74.44,17.67,100,184.3502,0,864.4219,0,318,0,0,17.33,16.82,22.24463,0.12,52.88,62.54,34,36.25
"2017-07-01 12:30:00",294904,0.595,71.26,17.86,100,188.9823,0,864.3925,0,318,0,0,17.39,16.83,23.07425,0.122,52.88,62.48,34,36.24
"2017-07-01 12:40:00",294905,0.751,52.59,17.71,100,86.90437,0,864.3503,0,13.93,2.947,279,17.39,16.83,9.841878,0.113,52.83,62.54,33.99,36.25
"2017-07-01 12:50:00",294906,0.511,57.45,17.66,100,90.09467,0,864.3735,0,318,0,0,17.39,16.83,10.53892,0.116,52.77,62.48,33.98,36.24
"2017-07-01 13:00:00",294907,0.457,85.4,17.66,100,83.10115,0,864.3693,0,1.552,3.067,240,17.37,16.82,9.455477,0.113,52.72,62.42,33.96,36.23
"2017-07-01 13:10:00",294908,0.45,75.19,17.72,100,71.97829,0,864.4493,0,13.99,2.946,244,17.41,16.8,8.239448,0.114,52.66,62.42,33.95,36.23
"2017-07-01 13:20:00",294909,0.553,68.9,17.72,100,80.56698,0,864.2913,0,-31.67,3.389,252,17.43,16.77,9.125899,0.112,52.66,60.56,33.95,35.81
"2017-07-01 13:30:00",294910,0.715,66.24,17.69,100,61.07154,0,864.283,0,318,0,0,17.44,16.77,6.515793,0.107,52.66,60.56,33.95,35.81
"2017-07-01 13:40:00",294911,0.538,45.35,17.68,100,48.61678,1.5,864.4745,0,4.441,3.039,396,17.44,16.77,4.901998,0.1,52.55,60.44,33.92,35.78
"2017-07-01 13:50:00",294912,0.392,66.25,17.63,100,40.61745,8.5,864.6619,0,6.552,3.019,283,17.44,16.75,3.712487,0.091,53.56,61.7,34.17,36.06
"2017-07-01 14:00:00",294913,0.414,55.91,17.56,100,43.02197,2,864.5566,0,318,0,0,17.61,16.79,4.114042,0.096,53.9,63.99,34.25,36.58
"2017-07-01 14:10:00",294914,0.373,50.72,17.59,100,45.69757,0.5,864.7609,0,-22.59,3.301,178,17.68,16.82,4.951245,0.108,53.84,63.99,34.23,36.58
"2017-07-01 14:20:00",294915,0.235,43.28,17.66,100,26.56361,0,864.7882,0,-35,3.421,221,17.62,16.82,2.833613,0.106,53.67,63.99,34.19,36.58
"2017-07-01 14:30:00",294916,0.082,72.32,17.65,100,39.17553,0,864.7882,0,-33.84,3.41,209,17.64,16.83,4.610303,0.118,53.56,63.99,34.17,36.58
"2017-07-01 14:40:00",294917,0.049,63.57,17.79,100,96.39278,0,864.7735,0,7.524,3.008,322,17.62,16.84,11.81177,0.122,53.5,63.99,34.15,36.58
"2017-07-01 14:50:00",294918,0.084,48.66,17.93,100,85.23073,0,864.7882,0,6.445,3.018,310,17.61,16.87,9.99342,0.117,53.39,63.99,34.13,36.58
"2017-07-01 15:00:00",294919,0.091,68.57,17.94,100,75.60173,0,864.7819,0,-0.862,3.089,219,17.59,16.88,9.016152,0.118,53.33,63.99,34.11,36.58
"2017-07-01 15:10:00",294920,0,0,18.17,100,118.4038,0,864.6472,0,-1.98,3.098,224,17.57,16.86,14.59626,0.119,53.28,63.93,34.1,36.57
"2017-07-01 15:20:00",294921,0.114,46.4,18.13,100,40.3229,0,864.7882,0,318,0,0,17.57,16.85,4.583798,0.113,53.16,63.39,34.07,36.44
"2017-07-01 15:30:00",294922,0,0,18.03,100,69.44024,0,864.7882,0,16.18,2.923,336,17.57,16.85,8.322796,0.12,53.11,63.02,34.06,36.36
"2017-07-01 15:40:00",294923,0.016,20.07,18.14,100,84.74738,0,864.7924,0,-22.74,3.299,194,17.58,16.84,9.758538,0.114,53,62.6,34.03,36.27
"2017-07-01 15:50:00",294924,0,0,18.21,100,44.14957,0,864.7882,0,-1.623,3.095,234,17.59,16.83,4.955033,0.112,53,62.24,34.03,36.19
"2017-07-01 16:00:00",294925,0.028,317.7,18.03,100,56.14465,0,864.7882,0,-17.58,3.25,172,17.59,16.84,6.940078,0.124,52.94,61.94,34.02,36.12
"2017-07-01 16:10:00",294926,0,0,18.15,100,75.50649,0,864.5629,0,-36.81,3.435,212,17.59,16.84,8.845568,0.116,52.88,61.82,34,36.09
"2017-07-01 16:20:00",294927,0.019,156,18.26,100,54.71451,0.5,864.5104,0,-34,3.408,204,17.61,16.84,6.261981,0.115,52.83,61.7,33.99,36.06
"2017-07-01 16:30:00",294928,0.203,16.36,18.08,100,26.74041,0,864.5082,0,318,0,0,17.62,16.84,3.417003,0.127,52.83,61.64,33.99,36.05
"2017-07-01 16:40:00",294929,0.076,69.22,18.1,100,40.05954,0,864.4219,0,0.396,3.075,266,17.62,16.83,5.144446,0.13,52.77,61.52,33.98,36.02
"2017-07-01 16:50:00",294930,0.04,21.18,18.18,100,28.33949,0,864.4282,0,-28.16,3.352,196,17.62,16.83,3.48898,0.123,52.72,61.46,33.96,36.01
"2017-07-01 17:00:00",294931,0.001,11.68,18.07,100,33.50213,0,864.4977,0,-1.162,3.091,218,17.62,16.83,4.470138,0.136,52.66,60.56,33.95,35.81
"2017-07-01 17:10:00",294932,0,0,18.14,100,30.23717,0,864.523,0,-0.693,3.086,229,17.62,16.83,3.697334,0.126,52.66,60.5,33.95,35.79
"2017-07-01 17:20:00",294933,0.006,314.6,18.12,100,40.21669,0,864.3482,0,0.959,3.07,252,17.62,16.83,5.269458,0.132,52.55,60.38,33.92,35.77
"2017-07-01 17:30:00",294934,0,0,18.24,100,52.62038,0,864.3925,0,5.456,3.026,524,17.62,16.83,6.565041,0.125,52.55,60.27,33.92,35.74
"2017-07-01 17:40:00",294935,0,0,18.31,100,53.69299,0,864.4661,0,318,0,0,17.65,16.83,6.644594,0.124,52.49,60.21,33.91,35.73
"2017-07-01 17:50:00",294936,0,0,18.36,100,36.65314,0,864.5904,0,-34.36,3.411,222,17.68,16.83,4.87548,0.133,52.49,60.15,33.91,35.71
"2017-07-01 18:00:00",294937,0,0,18.41,100,29.61247,0,864.6472,0,-0.216,3.08,228,17.69,16.83,3.632934,0.122,52.44,60.15,33.89,35.71
"2017-07-01 18:10:00",294938,0.044,2.39,18.36,100,27.62049,0,864.7903,0,318,0,0,17.7,16.83,3.42458,0.125,52.44,60.09,33.89,35.7
"2017-07-01 18:20:00",294939,0.221,331.9,18.15,100,5.154778,0,864.8303,0,-1.011,3.09,224,17.7,16.83,1.022828,0.197,52.38,60.03,33.88,35.69
"2017-07-01 18:30:00",294940,0.337,13.22,18.05,100,30.69686,0,864.9209,0,-1.21,3.091,212,17.7,16.84,5.045952,0.165,52.32,60.03,33.87,35.69
"2017-07-01 18:40:00",294941,0.242,205.5,18.19,100,21.03558,0,864.9272,0,-1.781,3.097,225,17.7,16.83,3.595051,0.18,52.32,59.97,33.87,35.67
"2017-07-01 18:50:00",294942,0.027,124.3,17.94,100,4.412207,0,865.0472,0,-1.582,3.096,211,17.7,16.83,0.8372037,0.19,52.27,59.91,33.85,35.66
"2017-07-01 19:00:00",294943,0.122,253.3,17.84,100,0.7700735,0,865.2198,0,-0.987,3.09,216,17.7,16.83,0.4394372,0.821,52.27,59.85,33.85,35.64
"2017-07-01 19:10:00",294944,0.096,291.7,17.79,100,0.1414421,0,865.2767,0,-35.95,3.43,226,17.7,16.83,0.2841189,0.37,52.16,59.85,33.83,35.64
"2017-07-01 19:20:00",294945,0,0,17.73,100,0,0,865.2936,0,-35.03,3.421,233,17.7,16.83,0.3485192,0,52.21,59.79,33.84,35.63
"2017-07-01 19:30:00",294946,0,0,17.73,100,0,0,865.3231,0,-0.971,3.091,290,17.7,16.83,0.2689659,0,52.16,59.73,33.83,35.62
"2017-07-01 19:40:00",294947,0.048,163.2,17.7,100,0,0,865.3946,0,318,0,0,17.7,16.83,0.1591066,0,52.16,59.79,33.83,35.63
"2017-07-01 19:50:00",294948,0.016,154.6,17.66,100,0,0,865.5715,0,4.956,3.034,368,17.7,16.84,0.2007775,0,52.1,59.73,33.81,35.62
"2017-07-01 20:00:00",294949,0.158,69.78,17.67,100,0,0,865.6557,0,4.084,3.042,538,17.71,16.84,0.2310863,0,51.66,59.67,33.7,35.6
"2017-07-01 20:10:00",294950,0.23,102.4,17.69,100,0,0,865.7084,0,4.807,3.035,532,17.7,16.84,0.3636752,0,51.66,59.67,33.7,35.6
"2017-07-01 20:20:00",294951,0.273,106,17.74,100,0,0,865.761,0,-0.456,3.086,240,17.7,16.84,0.2916965,0,51.6,59.67,33.69,35.6
"2017-07-01 20:30:00",294952,0.366,127.1,17.7,100,0,0,865.6136,0,-0.614,3.088,210,17.7,16.83,0.2159305,0,51.6,59.61,33.69,35.59
"2017-07-01 20:40:00",294953,0.291,144.9,17.64,100,0,0,865.5462,0,318,0,0,17.7,16.83,0.1515301,0,51.6,59.61,33.69,35.59
"2017-07-01 20:50:00",294954,0.431,145.2,17.56,100,0,0,865.5505,0,-1.655,3.099,220,17.68,16.84,0.3939794,0,51.55,59.56,33.68,35.58
"2017-07-01 21:00:00",294955,0.424,135.4,17.45,100,0,0,865.5547,0,-1.607,3.099,235,17.64,16.84,0.454596,0,51.49,59.56,33.66,35.58
"2017-07-01 21:10:00",294956,0.459,138.1,17.39,100,0,0,865.5631,0,-1.916,3.102,238,17.62,16.84,0.4545934,0,51.55,59.56,33.68,35.58
"2017-07-01 21:20:00",294957,0.3,139.9,17.37,100,0,0,865.6663,0,-0.781,3.091,250,17.62,16.84,0.5038387,0,51.49,59.56,33.66,35.58
"2017-07-01 21:30:00",294958,0.275,141.8,17.43,100,0,0,865.7905,0,-2.686,3.109,248,17.63,16.84,0.5871806,0,51.49,59.5,33.66,35.56
"2017-07-01 21:40:00",294959,0.293,109,17.44,100,0,0,865.7989,0,-3.156,3.114,235,17.64,16.84,0.473539,0,51.44,59.5,33.65,35.56
"2017-07-01 21:50:00",294960,0.543,76.15,17.45,100,0,0,865.7989,0,-3.514,3.117,209,17.65,16.84,0.7728201,0,51.44,59.5,33.65,35.56
"2017-07-01 22:00:00",294961,0.294,29.39,17.49,100,0,0,865.7989,0,-2.013,3.102,209,17.66,16.84,0.5379438,0,51.44,59.5,33.65,35.56
"2017-07-01 22:10:00",294962,0.304,45.76,17.54,100,0,0,865.7989,0,-0.933,3.092,297,17.65,16.84,0.5947626,0,51.44,59.44,33.65,35.55
"2017-07-01 22:20:00",294963,0.091,24.76,17.55,100,0,0.5,865.7989,0,-37.19,3.443,288,17.62,16.84,0.4735349,0,51.38,59.44,33.64,35.55
"2017-07-01 22:30:00",294964,0.045,47.52,17.51,100,0,0.5,865.7547,0,3.499,3.049,294,17.62,16.84,0.4318694,0,51.38,59.44,33.64,35.55
"2017-07-01 22:40:00",294965,0,0,17.5,100,0,1,865.6073,0,-2.713,3.109,322,17.62,16.85,0.272763,0,51.38,59.26,33.64,35.51
"2017-07-01 22:50:00",294966,0,0,17.45,100,0,0,865.601,0,-4.083,3.123,233,17.62,16.84,0.02651827,0,51.44,59.26,33.65,35.51
"2017-07-01 23:00:00",294967,0,0,17.47,100,0,0,865.6305,0,-26.98,3.344,216,17.61,16.84,0.08334212,0,51.49,59.32,33.66,35.52
"2017-07-01 23:10:00",294968,0,0,17.45,100,0,0.5,865.5378,0,1.645,3.067,379,17.59,16.84,0.1098609,0,51.49,59.32,33.66,35.52
"2017-07-01 23:20:00",294969,0,0,17.53,100,0,0,865.3672,0,-0.984,3.092,269,17.55,16.84,0.363682,0,51.55,59.38,33.68,35.54
"2017-07-01 23:30:00",294970,0,0,17.56,100,0,0,865.5167,0,-0.627,3.089,278,17.54,16.85,0.06061391,0,51.6,59.38,33.69,35.54
"2017-07-01 23:40:00",294971,0,0,17.51,100,0,0,865.5862,0,-1.29,3.095,289,17.54,16.84,0.09091994,0,51.55,59.38,33.68,35.54
"2017-07-01 23:50:00",294972,0,0,17.5,100,0,0,865.6578,0,0.615,3.077,344,17.53,16.84,0.06061244,0,51.6,59.38,33.69,35.54
